Weather History for Buffalo, SD

Change the Weather History Date:

Friday, November 23, 2012

  Actual Average Record
Temperature  
Mean Temperature 22 °F 28 °F  
Max Temperature 38 °F 38 °F 61 °F (2011)
Min Temperature 6 °F 17 °F -8 °F (2010)
Degree Days  
Heating Degree Days 43 37  
Month to date heating degree days 646 723  
Since 1 July heating degree days 1458 1624  
Cooling Degree Days 0 0  
Month to date cooling degree days 0 0  
Year to date cooling degree days 853 513  
Moisture  
Dew Point 12 °F    
Average Humidity 68    
Maximum Humidity 91    
Minimum Humidity 44    
Precipitation  
Precipitation 0.00 in 0.00 in 0.02 in (2006)
Month to date precipitation 0.11 0.30  
Year to date precipitation 8.28 14.22  
Sea Level Pressure  
Sea Level Pressure 30.38 in    
Wind  
Wind Speed 7 mph (South)    
Max Wind Speed 15 mph    
Max Gust Speed 18 mph    
T = Trace of Precipitation, MM = Missing Value Source: NWS Daily Summary

Daily Weather History Graph

Daily Weather History Graph

Search for Another Location

Airport:

Trip Planner

Search our weather history database for the weather conditions in past years. The results will help you decide how hot, cold, wet, or windy it might be!

Date:

Astronomy

Nov. 23, 2012 Rise Set
Actual Time 7:05 AM MST 4:16 PM MST
Civil Twilight 6:32 AM MST 4:49 PM MST
Nautical Twilight 5:55 AM MST 5:25 PM MST
Astronomical Twilight 5:20 AM MST 6:01 PM MST
Moon 1:42 PM MST (11/23) 2:14 AM MST (11/23)
Length of Visible Light 10h 17m
Length of Day
9h 11m
Waxing Gibbous, 80% of the Moon is Illuminated
Nov 23
Waxing Gibbous
Nov 28
Full
Dec 6
Last Quarter
Dec 13
New
Dec 19
First Quarter

Hourly Weather History & Observations

Time (MST) Temp. Windchill Dew Point Humidity Pressure Visibility Wind Dir Wind Speed Gust Speed Precip Events Conditions
12:56 AM 9.0 °F -5.1 °F 5.0 °F 84% 30.53 in - WNW 10.4 mph - N/A   Unknown
1:56 AM 8.1 °F -3.2 °F 5.0 °F 87% 30.55 in - WNW 6.9 mph - N/A   Unknown
2:56 AM 9.0 °F 0.6 °F 6.1 °F 88% 30.55 in - WNW 4.6 mph - N/A   Unknown
3:56 AM 7.0 °F 0.1 °F 5.0 °F 92% 30.56 in - West 3.5 mph - N/A   Unknown
4:56 AM 6.1 °F -2.8 °F 3.0 °F 87% 30.56 in - WSW 4.6 mph - N/A   Unknown
5:56 AM 8.1 °F - 5.0 °F 87% 30.55 in - Calm Calm - N/A   Unknown
6:56 AM 10.0 °F 3.6 °F 6.1 °F 84% 30.53 in - WNW 3.5 mph - N/A   Unknown
7:56 AM 9.0 °F 0.6 °F 5.0 °F 84% 30.54 in - SE 4.6 mph - N/A   Unknown
8:56 AM 14.0 °F - 10.9 °F 88% 30.53 in - Calm Calm - N/A   Unknown
9:56 AM 19.9 °F - 14.0 °F 78% 30.52 in - Calm Calm - N/A   Unknown
10:56 AM 27.0 °F 21.6 °F 16.0 °F 63% 30.47 in - SE 4.6 mph - N/A   Unknown
11:56 AM 33.1 °F 26.1 °F 17.1 °F 52% 30.41 in - SE 8.1 mph - N/A   Unknown
12:56 PM 35.1 °F 27.4 °F 19.0 °F 52% 30.38 in - SSE 10.4 mph - N/A   Unknown
1:56 PM 36.0 °F 28.5 °F 18.0 °F 48% 30.35 in - SSE 10.4 mph - N/A   Unknown
2:56 PM 37.0 °F 28.9 °F 18.0 °F 46% 30.33 in - South 12.7 mph - N/A   Unknown
3:56 PM 34.0 °F 25.0 °F 18.0 °F 52% 30.32 in - SSE 12.7 mph - N/A   Unknown
4:56 PM 30.0 °F 20.0 °F 17.1 °F 59% 30.30 in - SSE 12.7 mph - N/A   Unknown
5:56 PM 28.9 °F 20.4 °F 16.0 °F 58% 30.28 in - SE 9.2 mph - N/A   Unknown
6:56 PM 27.0 °F 16.7 °F 16.0 °F 63% 30.24 in - SSE 11.5 mph - N/A   Unknown
7:56 PM 27.0 °F 16.7 °F 16.0 °F 63% 30.21 in - SSE 11.5 mph - N/A   Unknown
8:56 PM 26.1 °F 17.6 °F 16.0 °F 66% 30.17 in - SSE 8.1 mph - N/A   Unknown
9:56 PM 26.1 °F 17.6 °F 16.0 °F 66% 30.14 in - SSE 8.1 mph - N/A   Unknown
10:56 PM 24.1 °F 15.2 °F 15.1 °F 69% 30.10 in - South 8.1 mph - N/A   Unknown
11:56 PM 23.0 °F 11.7 °F 15.1 °F 72% 30.06 in - SSE 11.5 mph - N/A   Unknown